User: anonymous   Login
Location: Bishop's University Astronomical Observatory
(45.3661°N, 71.8475°W)
Time: 01:11:41
(UTC-04:00)
Language:

Meteor 2-5 Rocket - Orbit

View from above orbital plane
View from above orbital plane
View from above satellite
View from above satellite

Ground track
Ground track

The orbit data is extracted from the following two-line orbital elements,

1 11608U 79095B   14295.49376936  .00000340  00000-0  19722-3 0  6789
2 11608 081.2150 070.9674 0054307 004.2428 060.2088 14.06021606793950
Epoch (UTC): 22 October 2014 11:51:01
Eccentricity: 0.0054307
inclination: 81.2150°
perigee height: 833 km
apogee height: 912 km
right ascension of ascending node: 70.9674°
argument of perigee: 4.2428°
revolutions per day: 14.06021606
mean anomaly at epoch: 60.2088°
orbit number at epoch: 79395

The dashed part of the orbit path shows where the satellite is in the earth's shadow,  

DLR